Hourly Data Report for October 27, 2016

All times are specified in Local Standard Time (LST). Add 1 hour to adjust for Daylight Saving Time where and when it is observed.

PETAWAWA AWOS 2
ONTARIO

45°57'00.000" N
77°19'00.000" W
130.10 m
6106396
71625
YWA

Download Data

Hourly Data (October 2016)
Hourly Data Report for October 27, 2016
Temp Definition
°C
Dew Point Temp Definition
°C
Rel Hum Definition
%
Wind Dir Definition
10's deg

Wind Spd Definition
km/h
Visibility Definition
km
Stn Press Definition
kPa
Hmdx Definition


Wind Chill Definition


Weather Definition


TIME
00:00 0.2 -5.9 64 12 9 14.5 101.68     LegendNANA
01:00 -0.1 -5.8 65 10 7 14.5 101.66   -3 LegendNANA
02:00 -0.1 -5.6 66 9 13 14.5 101.55   -4 LegendNANA
03:00 0.0 -5.5 66 13 7 14.5 101.49   -2 LegendNANA
04:00 -0.2 -4.8 71 9 11 14.5 101.39   -4 LegendNANA
05:00 -0.4 -4.2 76 13 7 14.5 101.37   -3 LegendNANA
06:00 -0.4 -4.2 76 10 13 14.5 101.31   -5 LegendNANA
07:00 0.4 -3.0 78 13 19 14.5 101.32     LegendNANA
08:00 0.9 -3.1 75 11 19 14.5 101.27     LegendNANA
09:00 2.0 -2.8 70 11 20 14.5 101.19     Snow
10:00 2.7 -2.5 69 13 20 14.5 101.14     LegendNANA
11:00 2.6 -3.0 66 12 28 14.5 101.06     LegendNANA
12:00 2.7 -2.9 66 10 17 14.5 100.91     LegendNANA
13:00 2.8 -3.5 63 9 20 14.5 100.79     LegendNANA
14:00 3.0 -3.5 62 8 17 14.5 100.69     LegendNANA
15:00 1.6 -2.1 76 9 19 2.7 100.65     Snow
16:00 0.3 -0.2 96 8 7 1.3 100.63     LegendNANA
17:00 0.3 0.0 98 5 9 0.6 100.56     Freezing Rain
18:00 0.3 0.1 99 3 11 1.6 100.50     LegendNANA
19:00 0.6 0.3 98 2 13 2.6 100.45     LegendNANA
20:00 0.6 0.3 98 35 9 4.0 100.37     LegendNANA
21:00 1.1 0.4 95 35 7 4.8 100.31     LegendNANA
22:00 1.4 0.8 96 34 9 12.9 100.26     LegendNANA
23:00 0.7 0.3 97 32 13 2.3 100.24     LegendNANA

Notes on Data Quality.

Legend

  • E = Estimated
  • M = Missing
  • NA = Not Available
  • ‡ = Partner data that is not subject to review by the National Climate Archives
Date modified: